Weather History for Winter Haven, FL

Change the Weather History Date:

Monday, June 9, 2014

  Actual Average Record
Temperature  
Mean Temperature 81 °F -  
Max Temperature 93 °F 91 °F 103 °F (1985)
Min Temperature 71 °F 69 °F 62 °F (1968)
Cooling Degree Days 16    
Growing Degree Days 31 (Base 50)    
Moisture  
Dew Point 69 °F    
Average Humidity 71    
Maximum Humidity 91    
Minimum Humidity 41    
Precipitation  
Precipitation 0.00 in - - ()
Sea Level Pressure  
Sea Level Pressure 29.98 in    
Wind  
Wind Speed 5 mph (WNW)    
Max Wind Speed 12 mph    
Max Gust Speed -    
Visibility 10 miles    
Events      
Averages and records for this station are not official NWS values.
T = Trace of Precipitation, MM = Missing Value Source: NWS Daily Summary

Daily Weather History Graph

Daily Weather History Graph

Search for Another Location

Airport:

Trip Planner

Search our weather history database for the weather conditions in past years. The results will help you decide how hot, cold, wet, or windy it might be!

Date:

Astronomy

Jun. 09, 2014 Rise Set
Actual Time 6:29 AM EDT 8:22 PM EDT
Civil Twilight 6:03 AM EDT 8:49 PM EDT
Nautical Twilight 5:31 AM EDT 9:21 PM EDT
Astronomical Twilight 4:57 AM EDT 9:55 PM EDT
Moon 4:57 PM EDT (6/9) 3:38 AM EDT (6/9)
Length of Visible Light 14h 46m
Length of Day
13h 53m
Waxing Gibbous, 85% of the Moon is Illuminated
Jun 9
Waxing Gibbous
Jun 13
Full
Jun 19
Last Quarter
Jun 27
New
Jul 5
First Quarter

Hourly Weather History & Observations

Time (EDT) Temp. Heat Index Dew Point Humidity Pressure Visibility Wind Dir Wind Speed Gust Speed Precip Events Conditions
12:53 AM 73.9 °F - 70.0 °F 87% 30.01 in 10.0 mi West 6.9 mph - N/A   Clear
1:53 AM 73.0 °F - 69.1 °F 87% 29.99 in 10.0 mi WNW 5.8 mph - N/A   Clear
2:53 AM 73.0 °F - 69.1 °F 87% 29.94 in 10.0 mi WSW 4.6 mph - N/A   Clear
3:53 AM 73.0 °F - 69.1 °F 87% 29.92 in 10.0 mi Calm Calm - N/A   Clear
4:53 AM 72.0 °F - 69.1 °F 91% 29.91 in 10.0 mi NW 3.5 mph - N/A   Clear
5:53 AM 71.1 °F - 68.0 °F 90% 29.93 in 10.0 mi NW 3.5 mph - N/A   Clear
6:53 AM 73.0 °F - 70.0 °F 90% 29.95 in 10.0 mi WNW 4.6 mph - N/A   Clear
7:53 AM 75.0 °F - 71.1 °F 87% 29.98 in 10.0 mi Calm Calm - N/A   Clear
8:53 AM 80.1 °F 83.6 °F 71.1 °F 74% 29.99 in 10.0 mi North 3.5 mph - N/A   Clear
9:53 AM 82.0 °F 86.3 °F 71.1 °F 69% 30.01 in 10.0 mi West 4.6 mph - N/A   Clear
11:28 AM 84.0 °F 89.0 °F 71.1 °F 65% 30.02 in 10.0 mi North - - N/A   Mostly Cloudy
11:41 AM 86.0 °F 90.7 °F 70.0 °F 59% 30.02 in 10.0 mi Variable 3.5 mph - N/A   Mostly Cloudy
11:53 AM 84.9 °F 89.4 °F 70.0 °F 61% 30.02 in 10.0 mi WSW 3.5 mph - N/A   Mostly Cloudy
12:53 PM 88.0 °F 90.7 °F 66.9 °F 49% 30.01 in 10.0 mi Variable 4.6 mph - N/A   Clear
4:53 PM 91.9 °F 94.1 °F 64.9 °F 41% 29.94 in 10.0 mi Variable 4.6 mph - N/A   Clear
5:53 PM 91.0 °F 93.0 °F 64.9 °F 42% 29.94 in 10.0 mi Variable 5.8 mph - N/A   Clear
6:53 PM 91.0 °F 93.0 °F 64.9 °F 42% 29.94 in 10.0 mi SSE 4.6 mph - N/A   Partly Cloudy
7:53 PM 84.9 °F 90.7 °F 72.0 °F 65% 29.96 in 10.0 mi North 11.5 mph - N/A   Overcast
8:53 PM 79.0 °F - 68.0 °F 69% 29.98 in 10.0 mi West 5.8 mph - N/A   Clear
9:53 PM 79.0 °F - 71.1 °F 77% 29.99 in 10.0 mi North 4.6 mph - N/A   Clear
10:53 PM 77.0 °F - 70.0 °F 79% 29.99 in 10.0 mi NW 4.6 mph - N/A   Clear
11:53 PM 79.0 °F - 70.0 °F 74% 30.01 in 10.0 mi North 4.6 mph - N/A   Partly Cloudy